Погода в Тимонине

Россия / Архангельская область     61°31′02″N   41°57′58″E
темп.,
°C
ветер,
м/с
пор.,
м/с
влажн.,
%
обл.,
%
осадки,
мм/ч
давл.,
гПа
погр.,
м
5 августа, чт
чт500:00+10зюз311710 0.0 1014218
03:00+8з28784 0.0 1015147
06:00+11з24735 0.0 1017139
09:00+15зсз245595 0.0 1017614
12:00+18зсз25416 0.0 10171616
15:00+19сз2341100 0.0 10181690
18:00+16с1160100 0.0 101811
21:00+14всв1165100 0.0 101810
6 августа, пт
пт600:00+13всв1166100 0.0 101915
03:00+12св236999 0.0 101981
06:00+11св2573100 0.0 1020156
09:00+15всв2458100 0.0 1020490
12:00+18всв3447100 0.0 10191308
15:00+19вюв2442100 0.0 10182050
18:00+16вюв136299 0.0 1019115
21:00+13ююв117383 0.0 101911
7 августа, сб
сб700:00+12всв127687 0.0 102037
03:00+11св258276 0.0 1020115
06:00+12всв3969100 0.0 1021375
09:00+14в385798 0.0 1022567
12:00+17вюв3647100 0.0 1021819
15:00+20вюв3539100 0.0 10201583
18:00+19в2649100 0.0 1020695
21:00+14в2768100 0.0 1020137
8 августа, вс
вс800:00+12всв2771100 0.0 1020168
03:00+12вюв2974100 0.0 1020290
06:00+10вюв31295100 1.3 1020547
09:00+10в51398100 7.5 1019747
12:00+11в51497100 3.4 1019760
15:00+10в51497100 5.1 1019803
18:00+10в51295100 0.3 1017618
21:00+10в41199100 7.1 1016612
9 августа, пн
пн900:00+10в41099100 13.5 1016600
03:00+10всв3999100 14.4 1015554
06:00+10всв3899100 1.3 1015478
09:00+11св3899100 2.0 1015582
12:00+12св3796100 0.1 1017641
15:00+16в476889 0.2 10171059
18:00+16ююв22685 0.0 1017378
21:00+11зюз22944 0.0 101713